Temperature
13 12 13 13 12 12 12 12 12 12 12 12 12 12 12 12 12 12 12 12 12 12 12 12 12 12 12 11 11 11 11 11 11 11 11 11 11 11 11 11 11 11 11
12 12 12 12 12 12 12 12 12 12 12 12 12 12 12 12 12 12 12 12 12 12 11 11 11 11 11 11 11 11 11 11 11 11 11 11 11 11 11 11 10 10 10
12 12 12 12 12 12 12 12 12 11 11 11 11 12 11 12 12 11 11 11 11 11 11 11 11 11 11 11 11 11 11 11 10 10 10 11 11 11 10 10 10 10 10
12 12 12 12 12 12 11 11 11 11 11 11 11 11 11 11 11 11 11 11 11 11 11 11 11 11 11 11 10 10 10 10 10 10 10 10 10 10 10 10 10 10 10
11 11 11 11 11 11 11 11 11 11 11 11 11 10 10 11 11 11 11 11 11 11 11 11 11 10 10 10 10 10 10 10 10 10 10 10 10 10 10 10 10 9 9
11 11 11 11 11 11 11 11 10 10 10 10 10 10 10 10 10 10 10 10 10 10 10 10 10 10 10 10 10 10 10 10 10 9 9 9 9 9 9 9 9 9 9
11 10 11 10 10 10 10 10 10 10 10 10 10 9 9 9 9 10 10 10 10 10 10 10 10 10 10 10 10 10 9 9 9 9 9 9 9 9 9 9 9 9 9
10 10 10 10 10 10 10 10 10 10 9 9 9 9 9 9 9 9 9 9 9 9 9 9 9 9 9 9 9 9 9 9 9 9 9 8 8 8 8 8 8 8 8
10 10 10 10 10 10 10 10 10 10 10 9 9 9 9 9 8 8 9 9 9 9 9 9 9 9 9 9 9 9 9 8 8 8 8 8 8 8 8 7 7 8 8
10 10 10 9 9 9 9 9 9 9 9 9 9 9 9 9 8 8 8 8 8 8 8 8 8 8 8 8 8 8 8 8 8 8 8 7 7 7 7 7 7 7 7
10 9 9 9 9 9 9 9 9 9 9 9 9 8 8 8 8 8 8 8 8 8 8 8 8 8 8 8 8 8 7 7 7 7 7 7 7 7 7 7 7 7 6
9 9 9 9 9 9 9 9 9 8 8 8 8 8 8 8 8 8 8 8 7 7 7 7 7 7 7 7 7 7 7 7 7 7 7 7 6 6 6 6 6 6 6
9 9 9 9 9 9 8 8 8 8 8 8 8 8 7 7 8 7 7 7 7 7 7 7 7 7 7 7 7 6 6 6 6 6 6 6 6 6 6 6 6 6 6
9 9 8 8 8 8 8 8 8 8 8 8 7 7 7 7 7 7 7 7 6 6 6 7 7 6 6 6 6 6 6 6 6 6 6 6 6 6 6 6 6 6 5
8 8 8 8 8 8 8 8 8 8 7 7 7 7 7 7 7 7 6 6 6 6 6 6 6 6 6 6 6 6 6 6 6 5 5 5 5 5 5 5 5 5 5
8 8 7 7 7 7 7 7 7 7 7 7 7 7 6 6 6 6 6 6 6 5 5 6 6 6 6 5 5 5 5 5 5 5 5 5 5 5 5 5 5 5 5
7 7 7 7 7 7 7 7 7 7 7 6 6 6 6 6 6 6 5 5 5 5 5 5 5 5 5 5 5 5 5 5 5 5 5 5 5 4 4 4 4 4 4
6 6 6 6 6 6 6 6 6 6 6 6 6 6 6 6 5 5 5 5 5 5 4 4 5 5 5 5 5 5 5 4 4 4 4 4 4 4 4 4 4 4 4
6 6 6 6 6 6 6 6 6 6 6 6 5 5 5 5 5 5 5 4 4 4 4 4 4 4 4 4 4 4 4 4 4 4 4 4 4 4 4 4 3 3 3
5 5 5 5 5 5 5 5 5 5 5 5 5 5 5 5 5 4 4 4 4 4 3 3 3 3 4 4 3 4 4 4 4 4 3 3 3 3 3 3 3 3 3
5 5 5 5 5 5 5 5 5 5 5 5 5 5 4 4 4 4 4 4 3 3 3 3 3 3 3 3 3 3 3 3 3 3 3 3 3 3 3 3 3 3 3
4 4 4 4 4 4 4 4 4 4 4 4 4 4 4 4 4 4 3 3 3 3 3 3 2 2 2 2 2 2 2 2 2 2 2 2 2 3 3 3 2 2 2
4 4 4 4 4 4 4 4 4 4 4 4 4 4 4 3 3 3 3 3 3 3 2 2 2 2 2 2 2 2 2 2 2 2 2 2 2 2 2 2 2 2 2
3 3 3 3 3 4 3 3 3 3 3 3 3 3 3 3 3 3 3 3 3 3 2 2 2 2 2 1 1 1 1 1 1 1 1 1 1 1 2 2 1 1 1
2 2 3 3 3 3 3 3 3 3 3 3 3 2 2 2 2 2 2 2 2 2 2 2 2 1 1 1 1 1 1 1 0 1 1 0 1 1 1 1 1 1 1
1 2 2 2 2 2 2 2 2 2 2 2 2 2 2 2 2 1 1 2 2 2 1 1 1 1 1 1 0 0 0 -0 -0 -0 0 -0 -0 -0 -0 0 1 0 0
Wind_Speed
5 5 5 6 6 7 7 7 7 7 7 7 6 6 6 5 5 4 4 5 4 4 5 5 6 6 6 7 6 6 6 6 7 7 6 6 6 6 7 7 7 8 8
7 6 5 5 6 6 7 7 7 7 6 6 5 6 5 5 5 5 5 5 6 4 3 4 5 5 5 5 5 5 6 6 6 5 5 6 6 7 7 6 6 7 8
8 7 5 4 5 7 8 8 7 7 5 5 4 5 5 6 6 6 5 5 5 6 5 4 3 4 4 4 5 5 5 5 4 4 5 5 5 5 5 5 6 6 6
9 8 5 4 6 7 7 5 4 4 4 4 3 3 4 5 6 6 6 6 6 5 5 5 4 3 3 3 3 4 4 4 3 3 3 3 3 4 4 4 5 5 5
9 8 6 5 7 6 5 4 3 3 4 4 4 3 3 4 5 6 6 6 6 6 6 6 5 5 4 3 2 3 3 3 3 3 2 2 3 3 3 3 3 3 4
9 8 6 6 7 5 3 3 4 3 3 4 4 4 4 3 4 4 4 5 5 5 6 6 6 5 5 4 3 2 2 2 2 2 2 2 3 3 3 2 3 3 3
9 8 6 5 5 4 4 4 4 4 3 3 3 3 3 3 3 3 4 4 5 5 6 6 5 5 4 3 3 2 2 2 3 2 2 2 2 2 2 2 2 2 2
8 7 7 5 4 4 4 4 4 3 2 2 2 2 1 2 3 2 2 2 3 4 5 5 5 5 4 4 3 2 2 2 1 2 1 2 3 2 2 1 1 1 2
7 7 7 6 5 4 4 4 4 4 3 1 1 3 3 2 0 2 2 2 2 3 4 4 4 4 3 3 3 3 2 2 1 0 1 2 0 1 2 1 1 1 2
6 6 7 6 5 4 4 4 3 3 4 3 1 1 2 3 2 0 1 2 2 2 3 3 3 3 2 2 3 3 3 2 1 1 1 1 1 1 1 1 1 1 2
4 5 6 5 5 4 4 4 3 3 3 4 3 2 2 2 2 2 1 1 2 1 1 2 2 2 2 2 2 3 2 2 2 2 2 2 2 2 3 2 2 2 2
2 3 5 4 4 4 4 4 4 4 3 3 3 2 3 2 2 2 2 2 1 2 2 2 2 2 2 2 2 2 2 2 2 2 2 2 2 2 3 4 3 3 4
2 3 3 3 4 4 5 5 4 3 3 4 4 2 2 2 2 2 3 2 1 1 2 1 1 2 2 2 3 2 2 2 3 3 3 3 3 3 3 4 4 4 5
4 4 4 4 4 4 5 5 3 3 3 3 3 3 2 2 2 2 3 3 1 1 1 3 1 2 2 2 3 3 3 3 3 3 4 4 4 4 4 4 4 4 5
3 4 4 4 4 4 5 5 3 4 3 3 3 3 2 2 2 2 2 3 3 2 3 3 2 1 3 3 4 4 4 4 4 4 4 5 5 5 5 5 4 4 5
4 5 4 4 3 4 4 4 3 3 4 3 3 3 3 2 2 2 2 2 2 3 3 2 3 2 3 3 4 4 5 5 5 5 5 6 6 6 6 6 6 6 6
4 4 5 4 4 4 3 4 4 4 5 4 3 4 4 3 3 2 2 2 2 2 3 2 2 1 1 2 3 5 5 5 6 6 6 7 7 7 7 7 7 7 7
3 4 4 4 4 4 4 4 5 4 5 5 4 4 4 3 3 3 3 3 3 3 3 3 2 2 2 2 3 3 4 5 6 7 7 7 8 8 8 8 8 8 8
3 3 4 5 5 5 5 4 5 5 5 5 5 5 4 4 4 3 3 4 3 2 2 3 3 2 2 1 2 3 4 4 5 7 7 7 8 8 9 9 9 9 9
3 3 4 4 4 4 5 5 4 5 4 4 4 5 5 6 6 5 4 4 4 3 3 2 2 2 2 1 1 2 3 2 3 5 6 7 8 9 9 10 10 10 9
3 3 3 3 3 3 4 4 5 5 5 4 4 4 5 6 6 5 4 4 5 4 3 3 2 1 2 1 2 2 3 3 3 3 3 4 6 6 7 9 10 10 10
2 2 3 3 3 3 5 6 5 5 5 5 4 4 4 5 5 5 5 5 5 5 5 4 3 3 4 4 3 2 2 3 4 2 2 4 4 4 7 8 10 11 11
2 2 2 3 3 4 6 6 6 4 5 5 5 4 3 3 4 4 4 4 5 6 6 6 5 6 5 5 4 4 4 4 4 2 2 4 3 5 7 9 11 11 11
2 2 2 3 3 3 5 6 6 4 4 4 4 5 4 4 4 4 4 4 4 5 6 5 6 7 6 6 6 5 5 3 2 2 3 4 3 4 5 8 10 10 11
2 2 2 3 3 3 4 5 5 3 3 4 4 4 4 4 5 6 5 5 4 4 6 8 8 8 8 7 6 2 1 2 4 3 2 3 2 3 3 4 7 9 10
2 2 1 2 2 2 3 4 4 3 3 3 3 3 5 5 6 7 5 5 6 5 4 4 5 6 5 6 7 5 5 3 3 4 3 3 2 2 3 3 4 6 8
Wind_Direction
121 115 112 109 108 109 109 105 102 99 94 93 96 99 97 95 90 88 75 74 84 107 128 134 131 127 126 124 116 113 112 108 102 96 94 89 87 89 85 78 73 71 70
132 125 117 113 112 116 116 112 108 105 98 95 88 89 90 88 83 81 75 68 65 73 114 135 132 128 129 131 127 123 121 118 111 104 96 92 88 84 82 81 73 68 66
136 129 122 117 120 121 115 110 105 101 98 92 84 81 83 84 79 71 69 70 67 62 73 95 114 127 135 136 135 135 127 120 121 114 103 98 92 88 87 80 73 65 59
141 132 124 124 127 121 117 112 107 101 94 93 86 72 72 76 72 68 67 68 69 66 66 69 75 90 104 123 130 129 128 126 132 126 121 112 102 98 91 83 70 62 56
142 134 127 127 127 116 112 119 105 109 107 103 94 74 62 63 64 63 60 61 66 69 68 59 58 59 62 75 109 125 132 139 141 144 140 134 122 113 103 88 72 58 48
138 131 124 127 128 117 108 113 111 100 106 108 93 70 53 52 58 54 54 56 56 59 68 67 59 51 50 56 71 94 100 127 145 160 153 146 135 129 115 96 79 60 43
139 134 127 128 129 130 134 130 121 108 98 109 94 68 38 44 48 38 45 57 49 50 59 61 61 56 43 41 48 68 77 83 86 125 143 158 154 136 120 101 75 56 42
142 140 135 135 132 131 132 137 131 125 115 112 122 113 75 10 6 19 30 49 43 45 52 51 57 53 47 45 30 29 46 67 74 73 75 233 213 191 179 148 83 49 31
142 142 144 140 140 142 152 156 153 144 153 133 108 142 150 194 307 354 16 33 39 42 37 41 51 48 38 35 31 17 23 25 12 351 354 19 14 207 205 182 64 9 355
141 143 147 148 148 149 157 166 164 152 148 156 131 70 107 138 144 125 343 9 23 30 20 19 34 47 42 35 34 26 20 10 347 335 317 330 347 343 346 339 325 343 347
138 145 149 150 154 157 160 162 161 157 159 164 159 144 114 85 106 149 212 296 342 342 349 354 11 21 25 28 22 12 4 347 333 336 328 335 343 347 332 323 335 329 325
135 145 153 152 157 158 164 166 170 170 170 164 160 155 157 159 168 160 181 211 253 298 320 347 3 351 344 0 1 353 348 328 328 331 327 329 334 346 342 331 327 321 319
170 181 156 157 159 164 164 157 157 168 168 164 170 179 178 175 153 151 151 174 213 286 317 315 294 304 312 335 331 317 317 314 317 318 314 313 316 319 320 317 322 319 320
181 171 163 160 156 157 159 153 152 163 166 172 173 168 173 179 160 157 157 155 167 276 281 269 291 271 283 310 305 287 292 292 294 300 304 303 301 303 300 299 304 305 307
163 158 163 160 157 156 156 155 163 168 167 179 178 172 172 177 165 159 153 158 164 205 252 251 255 277 280 287 284 279 272 274 272 277 283 285 283 284 286 283 282 285 289
158 158 161 163 164 162 157 159 165 161 164 183 181 177 185 178 168 160 164 166 169 181 226 244 239 268 276 279 282 276 268 268 266 267 269 272 271 271 273 274 272 273 279
159 165 169 169 171 173 167 171 178 169 175 185 183 185 197 180 178 182 178 176 180 172 217 263 259 269 269 276 290 280 271 266 264 267 267 266 265 267 271 272 273 272 275
161 167 168 169 176 180 183 188 191 185 186 193 195 191 199 186 187 188 186 193 196 192 196 238 261 258 256 262 273 277 277 270 268 267 266 265 263 266 270 272 274 273 274
162 163 168 178 186 187 190 195 195 194 195 199 196 196 201 192 202 198 194 198 198 195 192 211 244 250 259 276 287 289 278 274 275 268 262 263 264 267 270 271 271 270 270
166 172 180 185 187 185 186 189 190 192 195 199 198 201 202 202 207 202 202 203 193 186 188 202 231 250 260 273 253 267 286 275 283 279 271 267 268 270 270 271 270 268 269
168 174 173 181 181 184 190 188 191 192 193 199 204 209 209 208 207 202 203 200 192 195 197 210 229 250 256 261 250 248 270 285 279 262 268 269 265 263 267 267 265 264 265
159 162 176 182 189 202 197 193 191 191 193 198 205 210 216 214 212 208 208 203 198 201 208 215 231 238 246 244 245 252 262 284 280 249 242 272 253 260 263 259 263 263 263
157 167 186 188 202 209 198 196 195 188 194 201 203 203 213 223 219 213 219 222 220 220 214 213 224 235 238 232 225 241 244 252 260 255 248 270 260 263 265 264 266 262 261
169 186 196 195 205 215 198 193 192 189 193 203 206 203 206 215 214 206 210 221 229 232 232 228 227 234 236 225 217 228 235 248 283 266 225 253 259 262 275 270 264 262 263
173 193 199 194 196 219 202 195 184 189 199 209 211 208 206 211 217 210 208 219 235 250 253 246 250 255 255 245 227 199 206 244 269 261 218 231 262 283 281 271 269 268 270
186 183 195 201 201 219 211 200 192 193 202 212 210 214 218 218 222 214 214 217 234 245 243 255 264 267 259 241 223 212 205 228 256 256 217 213 247 277 284 273 275 276 271
Height
1535 1537 1539 1541 1542 1544 1545 1547 1549 1550 1552 1554 1556 1557 1559 1560 1561 1563 1564 1565 1566 1566 1567 1567 1568 1568 1568 1569 1569 1570 1570 1570 1571 1571 1571 1571 1571 1571 1571 1571 1570 1570 1570
1534 1536 1538 1540 1541 1543 1544 1546 1548 1550 1551 1553 1555 1556 1558 1559 1561 1562 1563 1564 1565 1566 1566 1567 1567 1568 1568 1569 1569 1569 1570 1570 1570 1570 1570 1570 1570 1570 1570 1570 1570 1570 1570
1533 1535 1537 1538 1540 1542 1543 1545 1547 1548 1550 1552 1553 1555 1557 1558 1560 1561 1562 1563 1564 1565 1565 1566 1567 1567 1567 1568 1568 1569 1569 1570 1570 1570 1570 1570 1570 1570 1570 1570 1570 1570 1569
1532 1534 1536 1537 1539 1541 1542 1544 1545 1547 1549 1551 1552 1554 1555 1557 1558 1560 1561 1562 1563 1564 1564 1565 1566 1566 1567 1567 1567 1568 1568 1569 1569 1569 1569 1569 1569 1569 1569 1569 1569 1569 1568
1530 1532 1534 1536 1538 1539 1541 1543 1544 1546 1547 1549 1551 1552 1554 1555 1557 1558 1559 1561 1561 1562 1563 1563 1564 1565 1566 1566 1567 1567 1567 1567 1568 1568 1568 1568 1568 1568 1568 1568 1568 1568 1567
1529 1531 1533 1535 1536 1538 1540 1541 1543 1545 1546 1548 1549 1551 1552 1554 1555 1556 1558 1559 1560 1561 1561 1562 1562 1563 1564 1565 1565 1566 1566 1566 1566 1567 1567 1567 1567 1567 1567 1567 1566 1566 1566
1527 1529 1531 1533 1535 1536 1538 1540 1541 1543 1544 1546 1548 1549 1551 1552 1553 1554 1556 1557 1558 1559 1559 1560 1561 1561 1562 1563 1563 1564 1564 1564 1564 1565 1565 1565 1565 1565 1565 1565 1565 1564 1564
1525 1527 1529 1531 1533 1534 1536 1538 1540 1541 1543 1545 1547 1548 1549 1552 1551 1552 1553 1554 1555 1557 1557 1558 1558 1559 1560 1560 1561 1562 1562 1562 1563 1563 1563 1563 1563 1563 1563 1563 1563 1562 1562
1523 1525 1527 1529 1531 1532 1534 1536 1538 1539 1541 1543 1545 1546 1547 1548 1549 1550 1551 1552 1553 1554 1555 1556 1556 1557 1558 1558 1559 1559 1560 1560 1560 1560 1561 1561 1561 1561 1561 1561 1561 1560 1560
1521 1523 1525 1527 1528 1530 1532 1534 1536 1537 1539 1541 1542 1544 1546 1546 1547 1548 1549 1550 1551 1552 1553 1554 1554 1555 1556 1556 1556 1556 1557 1557 1558 1558 1558 1558 1558 1558 1558 1558 1558 1558 1558
1518 1520 1522 1524 1526 1527 1529 1531 1533 1535 1536 1538 1540 1541 1543 1544 1545 1546 1546 1548 1549 1550 1550 1551 1552 1552 1553 1553 1553 1554 1555 1555 1555 1555 1555 1555 1555 1556 1556 1555 1555 1555 1555
1514 1517 1519 1521 1523 1525 1526 1528 1530 1532 1534 1535 1537 1539 1540 1541 1542 1543 1543 1544 1545 1547 1548 1548 1549 1550 1551 1551 1551 1551 1552 1552 1552 1552 1552 1552 1552 1553 1553 1553 1552 1552 1552
1511 1513 1515 1518 1520 1522 1524 1526 1527 1529 1531 1532 1534 1535 1537 1538 1539 1540 1541 1541 1542 1543 1544 1545 1546 1547 1548 1548 1548 1548 1549 1549 1549 1549 1549 1549 1549 1549 1549 1549 1549 1549 1549
1508 1510 1512 1515 1517 1519 1521 1523 1524 1526 1528 1529 1531 1532 1534 1535 1536 1538 1539 1539 1539 1540 1541 1542 1543 1544 1545 1545 1545 1545 1545 1546 1546 1546 1546 1546 1546 1546 1546 1546 1546 1546 1545
1504 1507 1509 1511 1513 1516 1517 1519 1521 1523 1524 1526 1527 1529 1530 1532 1533 1534 1536 1537 1538 1537 1537 1539 1540 1541 1541 1541 1542 1542 1542 1542 1542 1542 1542 1542 1542 1542 1542 1542 1542 1542 1541
1501 1503 1505 1507 1510 1512 1514 1516 1518 1519 1521 1523 1524 1526 1527 1529 1530 1531 1532 1534 1535 1535 1535 1535 1536 1537 1537 1537 1538 1538 1538 1539 1538 1538 1538 1538 1538 1538 1538 1538 1537 1537 1537
1496 1499 1501 1503 1506 1508 1510 1512 1514 1516 1517 1519 1521 1522 1523 1525 1526 1528 1529 1530 1531 1532 1531 1532 1533 1533 1533 1534 1534 1534 1534 1534 1534 1534 1534 1534 1534 1534 1533 1533 1533 1533 1532
1493 1495 1497 1499 1502 1504 1506 1508 1510 1512 1513 1515 1517 1518 1519 1521 1522 1524 1525 1526 1527 1528 1528 1528 1529 1529 1530 1530 1530 1530 1530 1530 1530 1530 1530 1529 1529 1529 1529 1528 1528 1528 1527
1489 1491 1493 1495 1498 1500 1502 1504 1506 1508 1509 1511 1513 1514 1516 1517 1518 1519 1521 1522 1523 1524 1524 1524 1524 1525 1525 1526 1525 1526 1526 1526 1526 1525 1525 1525 1525 1524 1524 1524 1523 1523 1522
1486 1488 1490 1492 1494 1496 1498 1500 1502 1504 1505 1507 1509 1510 1512 1513 1515 1516 1517 1517 1518 1519 1520 1520 1520 1521 1521 1521 1521 1521 1521 1521 1521 1521 1520 1520 1520 1519 1519 1519 1518 1517 1517
1482 1485 1487 1488 1490 1492 1494 1496 1498 1500 1501 1503 1504 1506 1508 1509 1510 1512 1512 1513 1514 1514 1515 1515 1516 1516 1516 1517 1517 1516 1516 1515 1515 1515 1515 1515 1515 1514 1514 1513 1513 1512 1512
1479 1481 1483 1485 1487 1489 1491 1492 1494 1495 1497 1498 1500 1502 1503 1505 1506 1507 1508 1509 1510 1510 1511 1511 1511 1511 1512 1512 1512 1512 1511 1510 1509 1510 1509 1509 1510 1509 1508 1508 1508 1507 1506
1475 1477 1479 1481 1483 1485 1487 1489 1490 1491 1493 1494 1496 1497 1499 1500 1501 1502 1503 1504 1505 1506 1507 1507 1506 1506 1507 1507 1508 1507 1507 1506 1505 1505 1504 1503 1503 1503 1503 1502 1502 1502 1501
1471 1473 1475 1477 1479 1481 1483 1484 1486 1487 1488 1490 1491 1493 1494 1495 1496 1498 1498 1499 1499 1500 1501 1501 1502 1502 1503 1503 1503 1503 1502 1501 1500 1500 1500 1498 1497 1497 1497 1497 1496 1496 1495
1467 1469 1471 1473 1475 1477 1479 1480 1481 1482 1484 1485 1487 1488 1489 1491 1492 1493 1493 1493 1494 1494 1496 1496 1496 1497 1497 1497 1498 1497 1496 1496 1494 1494 1494 1493 1492 1491 1490 1490 1490 1490 1489
1464 1466 1468 1470 1471 1473 1474 1476 1477 1478 1479 1480 1482 1483 1485 1486 1487 1487 1488 1488 1488 1489 1490 1490 1490 1491 1491 1491 1491 1491 1491 1491 1489 1488 1488 1488 1487 1486 1484 1483 1484 1483 1483